Location: Grossmotten
(48.5500°N, 15.3833°E)
Time: 20:34:06
(UTC+00:00)

Lacrosse 5 - Pass Details

Date: 15 November 2019
Orbit: 715 x 724 km, 57.0° (Epoch: 04 December)

Event Time Altitude Azimuth Distance (km) Brightness Sun altitude
Exits shadow 03:05:52 51° 120° (ESE) 902 2.5 -29.6°
Drops below altitude 10° 03:10:27 10° 60° (ENE) 2,204 5.1 -28.9°
Sets 03:12:52 0° 56° (NE) 3,127 6.0 -28.5°
